Simultaneous Nadir Overpasses (SNOs) Predictions

Prediction of SNOs between NPP and TERRA Satellite Orbit:

Table of predicted SNOs for the next 14.0 days since TLE Epoch: 12/3/2011
Index Date (NPP) Time (NPP) Lat,Lon (NPP) SZA (NPP ) Date (TERRA) Time (TERRA) Lat,Lon (TERRA) SZA (TERRA ) Distance(km) Time Diff (sec)
1 12/04/2011 18:22:51 -68.46, 82.90 89.40 12/04/2011 18:23:26 -68.48, 82.88 89.38 2.32 35
2 12/04/2011 19:13:35 68.32,-109.62 90.48 12/04/2011 19:12:54 68.32,-109.66 90.47 1.74 41
3 12/07/2011 09:49:12 69.12, 30.46 91.60 12/07/2011 09:50:21 69.04, 31.81 91.52 54.47 69
4 12/07/2011 10:39:42 -68.41,-161.27 89.12 12/07/2011 10:40:00 -68.43,-161.31 89.10 2.83 18
5 12/07/2011 11:30:27 68.33, 6.15 90.81 12/07/2011 11:29:27 68.32, 6.20 90.80 2.32 60
6 12/10/2011 02:05:53 68.54, 147.02 91.29 12/10/2011 02:07:02 68.56, 147.08 91.31 3.03 69
7 12/10/2011 02:56:34 -68.42, -45.50 88.83 12/10/2011 02:56:33 -68.40, -45.49 88.86 2.73 1
8 12/10/2011 03:47:15 68.12, 122.19 90.88 12/10/2011 03:46:02 68.18, 121.90 90.93 13.47 73
9 12/12/2011 18:22:44 68.50, -97.15 91.48 12/12/2011 18:23:35 68.49, -97.14 91.46 2.06 51
10 12/12/2011 19:13:25 -68.38, 70.32 88.65 12/12/2011 19:13:05 -68.38, 70.37 88.65 1.77 20
11 12/12/2011 20:03:54 67.43,-121.20 90.41 12/12/2011 20:02:46 67.49,-123.03 90.46 78.40 68
12 12/15/2011 10:39:33 68.42, 18.74 91.56 12/15/2011 10:40:06 68.43, 18.67 91.57 3.31 33
13 12/15/2011 11:30:15 -68.35,-173.86
